SCP
0 0 0 0 0 0 0 0 0 0 0 0 0 0 0 0 0 0 -0 -0 0 -0 0 0 0 0 0 0 0 0 0 0 0 0 0 0 0 0 0 0 0 0 0 0 0 0 0 0 0
0 0 0 0 0 0 0 0 0 0 0 0 0 0 0 0 0 0 0 0 0 0 -0 0 0 0 0 1 0 0 0 0 0 0 0 0 0 0 0 0 0 0 0 0 0 0 0 0 0
0 0 0 0 0 0 0 0 0 0 0 0 0 0 0 0 0 0 -0 0 0 0 0 0 0 0 1 0 0 0 0 0 0 0 0 0 0 0 0 0 0 0 0 0 0 0 0 0 0
0 0 -0 0 0 0 0 0 0 0 0 0 0 0 0 0 0 0 -0 0 0 0 0 0 -0 0 0 0 -0 0 0 0 0 0 0 0 0 0 0 0 0 0 0 0 0 0 0 0 0
0 0 0 0 0 0 0 0 0 0 0 0 0 0 0 0 0 -0 0 0 0 0 0 0 0 0 0 0 -0 -0 0 0 0 0 0 0 0 0 0 0 0 0 0 0 0 0 0 0 0
0 0 0 0 0 0 0 0 0 0 0 0 0 0 0 0 0 0 0 0 0 0 0 0 0 0 -0 0 0 0 0 0 0 0 0 0 0 1 0 0 0 0 0 0 0 0 0 0 0
0 0 0 0 0 0 0 0 0 0 0 0 0 0 0 0 0 0 0 0 0 0 0 0 0 0 0 0 0 0 0 0 0 0 0 0 0 0 0 0 0 0 0 0 0 0 0 0 0
0 0 0 0 0 0 0 0 0 0 0 0 0 0 0 0 0 0 0 0 0 0 0 0 0 0 0 0 0 0 0 0 0 0 0 0 0 0 0 0 0 0 0 0 0 0 0 0 0
0 0 0 0 0 0 0 0 0 0 0 0 0 0 0 0 0 0 -0 0 0 0 0 0 0 0 0 -0 -0 0 0 -0 0 0 0 0 0 0 0 0 0 0 0 0 0 0 0 0 0
0 0 0 0 0 0 0 0 0 0 0 0 0 0 0 0 0 0 -0 -0 0 0 0 0 0 0 0 0 -0 -0 -0 0 0 0 0 -0 -0 0 0 0 0 0 0 0 0 0 0 0 0
0 0 0 0 0 0 0 0 0 0 0 0 0 0 0 0 0 0 0 -0 0 0 0 0 0 0 0 0 0 0 0 -0 0 0 -0 -0 0 -0 0 0 0 0 0 0 0 0 0 0 0
0 0 0 0 0 0 0 0 0 0 0 0 0 0 0 0 0 0 0 0 0 0 0 0 0 0 0 0 0 0 0 0 0 -0 -0 0 0 0 0 0 0 0 0 0 0 0 0 0 0
0 0 0 0 0 0 0 0 0 0 0 0 0 0 0 0 0 0 0 0 0 0 0 0 0 0 0 0 0 0 0 0 0 -0 -0 -0 0 0 0 0 0 0 0 0 0 0 0 0 0
0 0 0 0 0 0 0 0 0 0 0 0 0 0 0 0 0 0 0 0 -0 0 0 0 0 0 0 0 0 0 0 0 0 0 -0 0 0 0 0 0 0 0 0 0 0 0 0 0 0
0 0 0 0 0 0 0 0 0 0 0 0 0 0 0 0 0 0 0 0 0 0 0 0 0 0 0 0 0 0 0 0 0 0 -0 -0 -0 0 0 0 0 0 0 0 0 0 0 0 0
0 0 0 0 0 0 0 0 0 0 0 0 0 0 0 0 0 0 0 0 0 0 0 0 0 0 0 0 0 0 0 0 0 0 0 0 0 -0 0 0 0 0 0 0 0 0 0 0 0
0 0 0 0 0 0 0 0 0 0 0 0 0 0 0 0 0 0 0 0 0 0 0 0 0 0 0 0 0 0 0 0 0 0 0 0 0 0 0 0 0 0 0 0 0 0 0 0 0
0 0 0 0 0 0 0 0 0 0 0 0 0 0 0 0 0 0 0 0 0 0 0 0 0 0 0 0 0 0 0 0 0 0 0 0 0 0 0 0 0 0 0 0 0 0 0 0 0
0 0 0 0 0 0 0 0 0 0 0 0 0 0 0 0 0 0 0 0 0 0 0 0 0 0 0 0 0 0 0 0 0 0 0 0 0 0 0 0 0 0 0 0 -0 0 0 0 0
0 0 0 0 0 0 0 0 0 0 0 0 0 0 0 0 0 0 0 0 0 0 0 0 0 0 0 0 0 0 0 0 0 0 0 0 0 0 0 0 0 0 0 0 0 0 0 0 0
0 0 0 0 0 0 0 0 0 0 0 0 0 0 0 0 0 0 0 0 0 0 0 0 0 0 0 0 0 0 0 0 0 0 0 0 0 0 0 0 0 0 0 0 0 0 0 0 0
0 0 0 0 0 0 0 0 0 0 0 0 0 0 0 0 0 0 0 0 0 0 0 0 0 0 0 0 0 0 0 0 0 0 0 0 0 0 0 0 0 0 0 0 0 0 0 0 0
0 0 0 0 0 0 0 0 0 0 0 0 0 0 0 0 0 0 0 0 0 0 0 0 0 0 0 0 0 0 0 0 0 0 0 0 0 0 0 0 0 0 0 0 0 0 0 0 0
0 0 0 0 0 0 0 0 0 0 0 0 0 0 0 0 0 0 0 0 0 0 0 0 0 0 0 0 0 0 0 0 0 0 0 0 0 0 0 0 0 0 0 0 0 0 0 0 0
0 0 0 0 0 0 0 0 0 0 0 0 0 0 0 0 0 0 0 0 0 0 0 0 0 0 0 0 0 0 0 0 0 0 0 0 0 0 0 0 0 0 0 0 0 0 0 0 0
0 0 0 0 0 0 0 0 0 0 0 0 0 0 0 0 0 0 0 0 0 0 0 0 0 0 0 0 0 0 0 0 0 0 0 0 0 0 0 0 0 0 0 0 0 0 0 0 0
0 0 0 0 0 0 0 0 0 0 0 0 0 0 0 0 0 0 0 0 0 0 0 0 0 0 0 0 0 0 0 0 0 0 0 0 0 0 0 0 0 0 0 0 0 0 0 0 0
0 0 0 0 0 0 0 0 0 0 0 0 0 0 0 0 0 0 0 0 0 0 0 0 0 0 0 0 0 0 -0 -0 -0 -0 0 0 0 0 0 0 0 0 0 0 0 0 0 0 0
0 0 0 0 0 0 0 0 0 0 0 0 0 0 0 0 0 0 0 0 0 0 0 0 0 0 0 0 0 0 0 0 -0 -0 -0 0 0 0 0 0 0 0 0 0 0 0 0 0 0
0 0 0 0 0 0 0 0 0 0 0 0 0 0 0 0 0 0 0 0 0 0 0 0 0 0 0 -0 -0 -0 0 0 0 0 -0 -0 -0 0 0 0 0 0 0 0 0 0 0 0 0
Wind_Speed_500mb
14 11 9 12 9 10 12 6 5 25 10 22 25 11 9 22 7 2 23 37 22 18 11 9 17 15 17 12 12 13 14 14 15 17 19 19 18 16 13 13 14 16 16 13 13 13 15 15 14
15 10 11 6 9 9 3 4 18 9 17 22 23 27 21 6 38 5 27 33 21 24 20 8 6 5 5 5 9 13 13 17 17 17 17 20 21 19 17 16 15 16 19 13 14 16 16 14 13
15 14 10 6 5 7 8 7 12 26 28 23 8 14 10 19 22 18 27 25 20 14 21 10 11 8 3 8 16 19 15 21 22 21 20 21 22 21 19 18 18 19 22 25 16 15 7 12 11
15 6 2 8 5 9 10 9 24 17 13 24 11 10 15 24 17 28 29 20 21 17 24 25 38 20 15 5 14 21 20 24 27 25 24 24 26 24 23 22 23 25 29 28 18 13 7 10 14
11 3 7 3 6 6 12 25 23 12 14 27 18 14 12 31 31 40 31 19 23 27 26 26 24 20 15 16 13 22 21 28 27 27 28 28 28 27 27 26 26 30 35 25 16 17 16 13 14
11 5 9 4 4 9 14 24 20 22 22 26 14 17 11 29 40 42 34 18 16 21 30 28 26 24 17 16 20 16 16 21 26 27 29 30 32 31 32 31 31 35 26 17 19 20 18 17 16
6 7 3 2 8 9 6 17 16 10 19 15 22 9 5 40 39 40 35 24 23 25 28 28 26 22 22 22 20 22 19 22 23 22 26 31 35 36 37 36 35 29 20 20 21 20 18 16 16
9 6 5 5 4 5 2 8 12 15 5 23 16 6 15 42 33 28 31 31 22 21 20 30 24 30 31 30 25 36 34 19 24 21 23 28 44 41 40 42 34 27 21 21 21 19 18 16 16
6 8 5 6 8 4 19 11 17 21 15 24 14 27 29 32 32 33 35 31 29 22 22 22 26 24 30 37 34 29 34 50 17 6 16 37 3 47 37 30 30 25 25 23 22 21 19 17 15
8 7 5 5 6 6 15 21 25 12 22 20 26 26 32 33 29 33 38 44 39 31 19 17 21 25 23 30 27 33 24 27 33 27 58 64 41 23 43 42 28 27 26 27 25 20 15 13 13
13 5 5 14 11 13 15 19 28 21 8 3 11 22 33 34 31 34 36 38 39 36 29 21 22 20 18 20 24 21 12 14 31 39 54 43 40 28 14 28 27 28 27 23 18 14 13 15 16
6 7 6 7 10 8 10 19 27 20 16 1 7 13 20 28 34 35 38 43 45 42 33 27 25 25 25 19 15 18 17 19 21 22 16 17 23 28 46 8 26 23 23 18 15 13 12 14 16
2 10 13 12 16 13 19 16 17 38 37 17 12 16 17 23 30 34 37 41 43 42 36 32 24 25 25 19 16 15 17 15 11 13 13 9 14 12 23 20 19 17 16 16 12 12 13 14 17
7 15 27 19 19 10 9 14 10 8 9 13 10 11 10 19 24 35 42 46 47 45 39 33 30 23 25 27 18 21 19 13 4 7 20 20 5 14 4 31 24 24 18 16 15 13 15 16 17
8 9 14 17 18 6 8 12 9 27 15 10 7 9 11 17 25 31 41 47 46 41 39 33 30 24 21 26 22 24 23 14 8 10 16 28 8 11 13 7 13 30 29 19 11 11 12 15 17
5 6 10 10 17 4 10 13 11 4 11 12 10 5 9 15 24 35 42 41 40 38 35 30 26 25 18 20 19 24 21 19 16 14 16 14 17 16 18 8 5 23 25 23 18 6 9 14 14
9 3 4 10 1 5 3 14 14 13 23 25 14 1 6 9 26 36 41 40 39 38 34 27 23 19 13 11 17 19 23 24 22 17 13 19 19 13 11 14 7 13 10 9 17 20 9 10 13
2 5 9 8 7 6 11 22 14 41 41 42 13 5 10 14 24 35 40 39 37 33 28 25 21 12 9 10 15 19 25 29 25 25 21 26 25 22 18 16 16 24 28 12 28 34 18 12 12
3 3 6 11 16 10 10 16 23 41 43 22 18 11 18 17 18 30 34 35 31 28 28 28 21 6 7 13 11 17 15 23 20 21 23 25 34 25 25 27 25 17 24 17 29 38 31 20 14
7 7 11 14 9 13 20 31 35 35 31 24 23 21 14 11 19 26 30 31 30 29 24 23 22 11 6 5 7 10 14 12 10 10 11 19 29 35 31 26 23 15 17 16 20 27 31 27 20
6 6 9 10 11 10 16 13 11 7 30 33 24 18 14 14 18 21 26 31 30 31 29 24 20 15 7 12 11 11 14 16 12 10 11 13 20 23 24 27 23 17 15 21 29 24 23 24 25
4 8 8 11 12 3 11 11 11 11 10 12 13 14 10 4 10 13 20 27 33 36 31 22 18 15 10 5 5 6 9 12 13 13 9 12 13 18 20 20 17 14 20 26 31 33 33 30 24
4 6 8 5 4 8 10 4 13 7 4 7 15 21 13 1 2 8 15 23 30 34 38 38 28 19 16 17 10 6 2 2 8 10 9 12 13 15 17 15 13 14 17 28 37 36 33 29 21
7 6 10 2 4 6 9 7 9 6 8 6 13 23 16 8 4 6 12 18 25 29 33 38 40 43 38 27 23 20 12 10 8 5 6 6 9 13 14 14 15 16 17 24 31 26 28 25 23
10 9 8 11 8 10 7 6 13 8 9 10 14 19 20 12 10 3 6 11 18 23 28 32 35 39 40 40 39 35 26 19 15 16 8 5 3 1 4 7 11 11 13 17 22 21 23 26 26
3 9 8 9 5 14 4 11 8 1 11 14 7 22 15 13 9 6 4 4 11 17 22 27 30 33 35 36 37 36 35 33 27 20 17 9 2 4 7 4 3 4 7 13 18 21 23 23 23
5 3 4 5 1 7 7 10 10 8 7 6 3 12 15 12 12 9 7 4 8 13 17 21 25 28 30 33 33 33 32 31 30 26 19 8 3 2 1 8 7 9 9 12 15 19 26 31 32
5 1 7 6 4 9 11 19 10 9 13 11 12 19 19 19 20 16 15 9 10 13 16 19 22 25 29 31 31 31 32 32 32 28 24 22 19 13 7 10 10 19 16 13 17 16 19 22 21
6 4 2 5 7 8 5 14 3 12 12 14 28 31 32 28 36 28 21 16 13 13 14 15 17 23 27 28 29 29 27 28 30 32 32 30 26 20 15 8 8 15 15 13 15 19 19 17 17
7 9 10 7 11 9 7 36 18 10 12 32 39 40 39 32 37 28 21 22 17 11 13 18 25 23 22 23 23 22 24 28 29 31 31 32 32 29 24 20 14 12 14 12 15 16 20 23 22
Wind_Direction_500mb
17 38 37 2 54 68 25 36 100 32 35 18 12 16 319 59 9 307 346 351 352 335 283 284 206 174 157 210 212 217 216 208 205 203 199 205 198 196 199 189 184 183 179 175 161 143 134 126 116
37 52 37 338 83 66 344 8 43 40 17 25 16 350 350 50 24 18 351 355 349 329 319 301 240 233 235 262 248 221 234 232 218 214 212 211 209 211 209 203 196 190 180 169 152 142 134 125 119
65 39 3 70 79 131 151 48 36 17 9 355 348 339 26 338 16 349 343 339 340 325 323 303 323 334 28 261 230 235 239 246 237 226 217 217 219 220 218 211 202 191 182 161 148 122 110 129 123
26 39 320 84 144 5 108 60 45 6 346 45 20 43 79 25 11 345 337 333 335 340 316 314 304 296 286 298 269 242 228 244 240 235 229 226 228 227 221 212 204 193 185 177 159 156 164 153 135
7 357 57 12 5 90 68 59 42 358 21 44 61 333 86 22 7 8 359 354 335 344 329 324 303 325 285 281 260 250 234 233 234 240 239 235 234 228 223 214 205 204 195 180 167 166 162 151 142
349 36 45 76 43 102 53 39 63 19 40 22 21 353 86 15 351 357 1 4 344 326 341 343 330 314 312 290 273 268 258 254 254 244 246 245 237 225 221 215 210 199 174 170 169 163 161 157 154
20 69 213 88 349 52 51 28 58 6 353 353 342 348 336 22 3 354 354 348 334 325 334 344 339 327 301 296 296 286 270 248 247 264 265 257 239 219 221 217 205 191 169 171 169 165 164 160 157
21 84 344 16 66 69 358 37 34 37 329 328 332 328 2 355 350 349 341 340 339 318 331 339 342 336 323 307 298 291 279 254 248 236 242 228 237 231 224 222 203 192 173 172 169 169 169 167 169
11 61 20 17 55 336 19 21 354 344 345 331 49 39 7 344 325 326 316 322 332 3 327 334 328 335 327 320 335 324 268 294 327 283 24 357 158 225 224 215 202 175 176 176 177 177 176 178 183
53 85 57 7 61 1 6 8 343 350 336 333 334 321 333 344 344 336 328 330 330 338 347 332 329 314 329 332 344 350 341 320 296 315 318 327 315 130 204 211 189 175 175 178 182 183 183 183 175
350 99 29 46 56 21 344 329 334 347 328 10 11 335 329 336 335 339 336 336 336 332 337 313 314 307 298 314 336 336 335 334 274 284 293 314 306 332 111 175 166 174 176 184 185 191 188 182 172
40 15 76 348 34 2 316 312 316 291 285 266 5 349 342 329 334 335 328 330 330 331 329 323 314 304 300 300 310 315 329 347 320 340 334 303 294 272 298 148 155 170 175 178 183 188 182 177 171
45 354 348 331 300 282 278 279 278 281 282 273 317 329 334 328 329 323 317 314 317 320 324 318 314 308 294 297 287 293 305 326 341 11 20 27 218 283 255 208 150 177 172 171 173 175 176 175 171
302 319 296 288 266 270 278 283 325 247 237 277 335 330 334 340 328 309 312 318 319 317 313 318 308 306 290 282 269 269 278 292 310 60 63 59 209 154 334 240 188 180 174 163 159 171 178 176 171
304 327 319 260 227 216 349 324 235 283 252 299 344 328 327 337 315 326 324 323 324 320 314 313 308 296 288 280 268 258 266 254 194 160 97 79 104 186 344 208 311 214 178 155 150 167 172 176 171
319 31 358 329 125 118 86 277 317 243 291 288 273 311 347 347 333 325 330 332 330 326 320 316 308 301 294 299 277 257 256 247 216 203 163 134 115 104 80 96 5 14 215 196 149 161 189 177 170
9 313 275 328 166 141 171 271 281 285 292 277 267 285 36 351 334 336 337 337 335 335 330 320 307 302 325 296 298 254 256 248 248 226 218 209 195 198 154 109 120 58 166 288 214 217 233 194 173
353 3 337 318 315 273 253 269 276 290 300 276 241 174 88 27 3 338 337 339 341 343 340 331 311 292 280 282 288 266 256 245 239 240 231 232 232 222 205 196 213 219 184 219 203 193 190 215 198
60 19 265 262 278 308 252 277 289 287 293 244 221 117 78 48 8 337 345 349 350 351 352 1 0 7 264 248 278 263 261 247 236 237 236 225 230 238 236 225 236 220 208 205 183 169 172 188 182
27 320 302 297 336 349 306 298 281 287 281 253 143 95 65 10 344 353 358 3 6 5 7 14 10 356 263 238 226 263 272 269 263 239 232 233 228 227 231 232 225 215 211 202 185 193 187 207 189
321 289 312 273 333 325 331 319 341 353 75 85 84 80 62 19 357 2 11 19 20 21 20 18 11 2 306 272 292 277 269 269 258 247 238 234 232 228 225 228 221 216 201 197 190 194 190 197 191
313 345 352 352 22 300 56 288 314 303 87 95 118 136 134 348 353 11 24 36 41 43 39 35 21 15 3 338 294 267 247 250 262 255 237 220 223 223 219 213 218 205 201 196 207 195 203 218 214
212 322 288 255 298 9 321 52 275 340 28 202 198 167 155 190 55 56 48 52 52 52 52 52 51 42 35 45 62 93 113 209 245 250 248 220 215 212 199 202 206 217 222 202 218 223 221 205 192
332 335 320 63 82 32 259 146 280 286 276 283 203 181 174 181 145 91 74 63 57 55 56 56 57 59 56 55 57 57 73 85 88 114 226 230 221 210 199 185 190 207 216 221 224 212 206 195 209
45 43 343 358 4 228 211 348 245 237 293 323 241 193 179 175 182 184 113 73 57 49 46 47 47 49 50 54 56 56 54 52 57 85 92 32 14 19 216 189 188 196 210 217 211 205 208 214 216
201 133 149 235 276 279 256 247 266 187 341 353 311 202 182 176 201 228 185 56 36 37 35 33 35 39 39 39 43 47 49 48 45 42 30 55 266 28 352 8 301 195 208 218 215 207 212 214 218
306 97 189 109 334 22 258 310 319 328 347 348 134 180 197 222 234 236 244 294 353 5 17 23 25 27 29 29 29 29 31 37 42 39 40 20 291 237 198 243 256 276 254 236 234 236 231 237 246
108 267 34 3 346 297 289 307 256 326 304 294 278 246 244 252 216 225 244 270 333 347 0 7 14 16 15 12 12 13 13 14 16 19 24 24 21 2 327 298 275 250 252 241 236 242 253 247 255
33 25 10 179 171 205 268 273 198 25 28 347 317 279 254 245 227 230 239 266 320 340 349 2 4 2 355 352 353 354 358 359 359 357 360 4 9 8 2 328 278 268 252 252 252 239 243 262 261
109 164 157 145 256 229 216 275 295 62 5 354 333 321 289 257 228 222 229 262 282 328 348 343 344 337 334 339 343 346 344 347 349 348 350 350 352 357 355 349 337 297 280 259 248 248 240 243 253
Wind_Speed_850mb
14 11 9 12 9 10 12 6 5 25 10 22 25 11 9 22 7 2 23 37 22 18 11 9 17 15 17 12 12 13 14 14 15 17 19 19 18 16 13 13 14 16 16 13 13 13 15 15 14
15 10 11 6 9 9 3 4 18 9 17 22 23 27 21 6 38 5 27 33 21 24 20 8 6 5 5 5 9 13 13 17 17 17 17 20 21 19 17 16 15 16 19 13 14 16 16 14 13
15 14 10 6 5 7 8 7 12 26 28 23 8 14 10 19 22 18 27 25 20 14 21 10 11 8 3 8 16 19 15 21 22 21 20 21 22 21 19 18 18 19 22 25 16 15 7 12 11
15 6 2 8 5 9 10 9 24 17 13 24 11 10 15 24 17 28 29 20 21 17 24 25 38 20 15 5 14 21 20 24 27 25 24 24 26 24 23 22 23 25 29 28 18 13 7 10 14
11 3 7 3 6 6 12 25 23 12 14 27 18 14 12 31 31 40 31 19 23 27 26 26 24 20 15 16 13 22 21 28 27 27 28 28 28 27 27 26 26 30 35 25 16 17 16 13 14
11 5 9 4 4 9 14 24 20 22 22 26 14 17 11 29 40 42 34 18 16 21 30 28 26 24 17 16 20 16 16 21 26 27 29 30 32 31 32 31 31 35 26 17 19 20 18 17 16
6 7 3 2 8 9 6 17 16 10 19 15 22 9 5 40 39 40 35 24 23 25 28 28 26 22 22 22 20 22 19 22 23 22 26 31 35 36 37 36 35 29 20 20 21 20 18 16 16
9 6 5 5 4 5 2 8 12 15 5 23 16 6 15 42 33 28 31 31 22 21 20 30 24 30 31 30 25 36 34 19 24 21 23 28 44 41 40 42 34 27 21 21 21 19 18 16 16
6 8 5 6 8 4 19 11 17 21 15 24 14 27 29 32 32 33 35 31 29 22 22 22 26 24 30 37 34 29 34 50 17 6 16 37 3 47 37 30 30 25 25 23 22 21 19 17 15
8 7 5 5 6 6 15 21 25 12 22 20 26 26 32 33 29 33 38 44 39 31 19 17 21 25 23 30 27 33 24 27 33 27 58 64 41 23 43 42 28 27 26 27 25 20 15 13 13
13 5 5 14 11 13 15 19 28 21 8 3 11 22 33 34 31 34 36 38 39 36 29 21 22 20 18 20 24 21 12 14 31 39 54 43 40 28 14 28 27 28 27 23 18 14 13 15 16
6 7 6 7 10 8 10 19 27 20 16 1 7 13 20 28 34 35 38 43 45 42 33 27 25 25 25 19 15 18 17 19 21 22 16 17 23 28 46 8 26 23 23 18 15 13 12 14 16
2 10 13 12 16 13 19 16 17 38 37 17 12 16 17 23 30 34 37 41 43 42 36 32 24 25 25 19 16 15 17 15 11 13 13 9 14 12 23 20 19 17 16 16 12 12 13 14 17
7 15 27 19 19 10 9 14 10 8 9 13 10 11 10 19 24 35 42 46 47 45 39 33 30 23 25 27 18 21 19 13 4 7 20 20 5 14 4 31 24 24 18 16 15 13 15 16 17
8 9 14 17 18 6 8 12 9 27 15 10 7 9 11 17 25 31 41 47 46 41 39 33 30 24 21 26 22 24 23 14 8 10 16 28 8 11 13 7 13 30 29 19 11 11 12 15 17
5 6 10 10 17 4 10 13 11 4 11 12 10 5 9 15 24 35 42 41 40 38 35 30 26 25 18 20 19 24 21 19 16 14 16 14 17 16 18 8 5 23 25 23 18 6 9 14 14
9 3 4 10 1 5 3 14 14 13 23 25 14 1 6 9 26 36 41 40 39 38 34 27 23 19 13 11 17 19 23 24 22 17 13 19 19 13 11 14 7 13 10 9 17 20 9 10 13
2 5 9 8 7 6 11 22 14 41 41 42 13 5 10 14 24 35 40 39 37 33 28 25 21 12 9 10 15 19 25 29 25 25 21 26 25 22 18 16 16 24 28 12 28 34 18 12 12
3 3 6 11 16 10 10 16 23 41 43 22 18 11 18 17 18 30 34 35 31 28 28 28 21 6 7 13 11 17 15 23 20 21 23 25 34 25 25 27 25 17 24 17 29 38 31 20 14
7 7 11 14 9 13 20 31 35 35 31 24 23 21 14 11 19 26 30 31 30 29 24 23 22 11 6 5 7 10 14 12 10 10 11 19 29 35 31 26 23 15 17 16 20 27 31 27 20
6 6 9 10 11 10 16 13 11 7 30 33 24 18 14 14 18 21 26 31 30 31 29 24 20 15 7 12 11 11 14 16 12 10 11 13 20 23 24 27 23 17 15 21 29 24 23 24 25
4 8 8 11 12 3 11 11 11 11 10 12 13 14 10 4 10 13 20 27 33 36 31 22 18 15 10 5 5 6 9 12 13 13 9 12 13 18 20 20 17 14 20 26 31 33 33 30 24
4 6 8 5 4 8 10 4 13 7 4 7 15 21 13 1 2 8 15 23 30 34 38 38 28 19 16 17 10 6 2 2 8 10 9 12 13 15 17 15 13 14 17 28 37 36 33 29 21
7 6 10 2 4 6 9 7 9 6 8 6 13 23 16 8 4 6 12 18 25 29 33 38 40 43 38 27 23 20 12 10 8 5 6 6 9 13 14 14 15 16 17 24 31 26 28 25 23
10 9 8 11 8 10 7 6 13 8 9 10 14 19 20 12 10 3 6 11 18 23 28 32 35 39 40 40 39 35 26 19 15 16 8 5 3 1 4 7 11 11 13 17 22 21 23 26 26
3 9 8 9 5 14 4 11 8 1 11 14 7 22 15 13 9 6 4 4 11 17 22 27 30 33 35 36 37 36 35 33 27 20 17 9 2 4 7 4 3 4 7 13 18 21 23 23 23
5 3 4 5 1 7 7 10 10 8 7 6 3 12 15 12 12 9 7 4 8 13 17 21 25 28 30 33 33 33 32 31 30 26 19 8 3 2 1 8 7 9 9 12 15 19 26 31 32
5 1 7 6 4 9 11 19 10 9 13 11 12 19 19 19 20 16 15 9 10 13 16 19 22 25 29 31 31 31 32 32 32 28 24 22 19 13 7 10 10 19 16 13 17 16 19 22 21
6 4 2 5 7 8 5 14 3 12 12 14 28 31 32 28 36 28 21 16 13 13 14 15 17 23 27 28 29 29 27 28 30 32 32 30 26 20 15 8 8 15 15 13 15 19 19 17 17
7 9 10 7 11 9 7 36 18 10 12 32 39 40 39 32 37 28 21 22 17 11 13 18 25 23 22 23 23 22 24 28 29 31 31 32 32 29 24 20 14 12 14 12 15 16 20 23 22
Wind_Direction_850mb
17 38 37 2 54 68 25 36 100 32 35 18 12 16 319 59 9 307 346 351 352 335 283 284 206 174 157 210 212 217 216 208 205 203 199 205 198 196 199 189 184 183 179 175 161 143 134 126 116
37 52 37 338 83 66 344 8 43 40 17 25 16 350 350 50 24 18 351 355 349 329 319 301 240 233 235 262 248 221 234 232 218 214 212 211 209 211 209 203 196 190 180 169 152 142 134 125 119
65 39 3 70 79 131 151 48 36 17 9 355 348 339 26 338 16 349 343 339 340 325 323 303 323 334 28 261 230 235 239 246 237 226 217 217 219 220 218 211 202 191 182 161 148 122 110 129 123
26 39 320 84 144 5 108 60 45 6 346 45 20 43 79 25 11 345 337 333 335 340 316 314 304 296 286 298 269 242 228 244 240 235 229 226 228 227 221 212 204 193 185 177 159 156 164 153 135
7 357 57 12 5 90 68 59 42 358 21 44 61 333 86 22 7 8 359 354 335 344 329 324 303 325 285 281 260 250 234 233 234 240 239 235 234 228 223 214 205 204 195 180 167 166 162 151 142
349 36 45 76 43 102 53 39 63 19 40 22 21 353 86 15 351 357 1 4 344 326 341 343 330 314 312 290 273 268 258 254 254 244 246 245 237 225 221 215 210 199 174 170 169 163 161 157 154
20 69 213 88 349 52 51 28 58 6 353 353 342 348 336 22 3 354 354 348 334 325 334 344 339 327 301 296 296 286 270 248 247 264 265 257 239 219 221 217 205 191 169 171 169 165 164 160 157
21 84 344 16 66 69 358 37 34 37 329 328 332 328 2 355 350 349 341 340 339 318 331 339 342 336 323 307 298 291 279 254 248 236 242 228 237 231 224 222 203 192 173 172 169 169 169 167 169
11 61 20 17 55 336 19 21 354 344 345 331 49 39 7 344 325 326 316 322 332 3 327 334 328 335 327 320 335 324 268 294 327 283 24 357 158 225 224 215 202 175 176 176 177 177 176 178 183
53 85 57 7 61 1 6 8 343 350 336 333 334 321 333 344 344 336 328 330 330 338 347 332 329 314 329 332 344 350 341 320 296 315 318 327 315 130 204 211 189 175 175 178 182 183 183 183 175
350 99 29 46 56 21 344 329 334 347 328 10 11 335 329 336 335 339 336 336 336 332 337 313 314 307 298 314 336 336 335 334 274 284 293 314 306 332 111 175 166 174 176 184 185 191 188 182 172
40 15 76 348 34 2 316 312 316 291 285 266 5 349 342 329 334 335 328 330 330 331 329 323 314 304 300 300 310 315 329 347 320 340 334 303 294 272 298 148 155 170 175 178 183 188 182 177 171
45 354 348 331 300 282 278 279 278 281 282 273 317 329 334 328 329 323 317 314 317 320 324 318 314 308 294 297 287 293 305 326 341 11 20 27 218 283 255 208 150 177 172 171 173 175 176 175 171
302 319 296 288 266 270 278 283 325 247 237 277 335 330 334 340 328 309 312 318 319 317 313 318 308 306 290 282 269 269 278 292 310 60 63 59 209 154 334 240 188 180 174 163 159 171 178 176 171
304 327 319 260 227 216 349 324 235 283 252 299 344 328 327 337 315 326 324 323 324 320 314 313 308 296 288 280 268 258 266 254 194 160 97 79 104 186 344 208 311 214 178 155 150 167 172 176 171
319 31 358 329 125 118 86 277 317 243 291 288 273 311 347 347 333 325 330 332 330 326 320 316 308 301 294 299 277 257 256 247 216 203 163 134 115 104 80 96 5 14 215 196 149 161 189 177 170
9 313 275 328 166 141 171 271 281 285 292 277 267 285 36 351 334 336 337 337 335 335 330 320 307 302 325 296 298 254 256 248 248 226 218 209 195 198 154 109 120 58 166 288 214 217 233 194 173
353 3 337 318 315 273 253 269 276 290 300 276 241 174 88 27 3 338 337 339 341 343 340 331 311 292 280 282 288 266 256 245 239 240 231 232 232 222 205 196 213 219 184 219 203 193 190 215 198
60 19 265 262 278 308 252 277 289 287 293 244 221 117 78 48 8 337 345 349 350 351 352 1 0 7 264 248 278 263 261 247 236 237 236 225 230 238 236 225 236 220 208 205 183 169 172 188 182
27 320 302 297 336 349 306 298 281 287 281 253 143 95 65 10 344 353 358 3 6 5 7 14 10 356 263 238 226 263 272 269 263 239 232 233 228 227 231 232 225 215 211 202 185 193 187 207 189
321 289 312 273 333 325 331 319 341 353 75 85 84 80 62 19 357 2 11 19 20 21 20 18 11 2 306 272 292 277 269 269 258 247 238 234 232 228 225 228 221 216 201 197 190 194 190 197 191
313 345 352 352 22 300 56 288 314 303 87 95 118 136 134 348 353 11 24 36 41 43 39 35 21 15 3 338 294 267 247 250 262 255 237 220 223 223 219 213 218 205 201 196 207 195 203 218 214
212 322 288 255 298 9 321 52 275 340 28 202 198 167 155 190 55 56 48 52 52 52 52 52 51 42 35 45 62 93 113 209 245 250 248 220 215 212 199 202 206 217 222 202 218 223 221 205 192
332 335 320 63 82 32 259 146 280 286 276 283 203 181 174 181 145 91 74 63 57 55 56 56 57 59 56 55 57 57 73 85 88 114 226 230 221 210 199 185 190 207 216 221 224 212 206 195 209
45 43 343 358 4 228 211 348 245 237 293 323 241 193 179 175 182 184 113 73 57 49 46 47 47 49 50 54 56 56 54 52 57 85 92 32 14 19 216 189 188 196 210 217 211 205 208 214 216
201 133 149 235 276 279 256 247 266 187 341 353 311 202 182 176 201 228 185 56 36 37 35 33 35 39 39 39 43 47 49 48 45 42 30 55 266 28 352 8 301 195 208 218 215 207 212 214 218
306 97 189 109 334 22 258 310 319 328 347 348 134 180 197 222 234 236 244 294 353 5 17 23 25 27 29 29 29 29 31 37 42 39 40 20 291 237 198 243 256 276 254 236 234 236 231 237 246
108 267 34 3 346 297 289 307 256 326 304 294 278 246 244 252 216 225 244 270 333 347 0 7 14 16 15 12 12 13 13 14 16 19 24 24 21 2 327 298 275 250 252 241 236 242 253 247 255
33 25 10 179 171 205 268 273 198 25 28 347 317 279 254 245 227 230 239 266 320 340 349 2 4 2 355 352 353 354 358 359 359 357 360 4 9 8 2 328 278 268 252 252 252 239 243 262 261
109 164 157 145 256 229 216 275 295 62 5 354 333 321 289 257 228 222 229 262 282 328 348 343 344 337 334 339 343 346 344 347 349 348 350 350 352 357 355 349 337 297 280 259 248 248 240 243 253